Temperature
18 18 18 18 18 18 18 18 18 18 18 18 18 18 18 18 18 18 18 17 17 17 17 17 17 17 17 17 17 16 16 16 16 16 16 16 16 16 16 16 16 16 16
18 18 18 18 18 18 18 18 18 18 18 18 18 18 18 18 18 18 17 17 17 17 17 17 17 17 17 17 17 16 16 16 16 16 16 16 16 16 16 16 16 16 16
18 18 18 18 18 18 18 18 18 18 18 18 18 18 18 18 17 17 17 17 17 17 17 17 17 17 17 17 17 16 16 16 16 16 16 16 16 16 16 16 16 15 15
18 18 18 18 18 18 18 18 18 18 18 18 18 18 17 17 17 17 17 17 17 17 17 17 17 17 17 17 16 16 16 16 16 16 16 16 16 16 16 16 16 15 15
18 18 18 18 18 18 18 18 18 18 18 18 18 18 18 17 17 17 17 17 17 17 17 17 17 17 17 16 16 16 16 16 16 16 16 16 16 16 15 15 15 15 15
18 18 18 18 18 18 18 18 18 18 18 18 18 18 18 17 17 17 17 17 17 16 16 16 16 16 16 16 16 16 16 16 16 16 16 16 15 15 15 15 15 15 15
18 18 18 18 18 18 18 18 18 18 18 18 18 18 17 17 17 17 17 17 17 16 16 16 16 16 16 16 16 16 16 16 15 15 15 15 15 15 15 15 15 15 15
18 18 18 18 18 18 18 18 18 18 18 18 18 18 18 17 17 17 17 17 17 17 16 16 16 16 16 16 16 16 16 15 15 15 15 15 15 15 15 15 15 15 15
18 18 18 18 18 18 18 18 18 18 18 18 18 18 18 18 17 17 17 17 17 16 16 16 16 16 16 16 16 15 15 15 15 15 15 15 15 15 14 14 14 14 14
18 18 18 18 18 18 18 18 18 18 18 18 18 18 18 18 18 17 17 17 17 16 16 16 16 16 16 15 15 15 15 15 15 15 15 14 14 14 14 14 14 14 14
18 18 18 18 18 18 18 18 18 18 18 18 18 18 18 18 18 18 17 17 16 16 16 16 16 15 15 15 15 15 15 15 15 15 14 14 14 14 14 14 14 14 14
19 18 18 18 18 18 18 18 18 18 18 18 18 18 18 18 18 18 17 17 16 16 16 16 15 15 15 15 15 15 15 15 15 14 14 14 14 14 14 14 14 14 14
19 19 18 18 18 18 18 18 18 18 18 18 18 18 18 18 18 18 17 17 16 16 16 15 15 15 15 15 15 15 15 14 14 14 14 14 14 14 14 13 13 13 13
19 19 19 18 18 18 18 18 18 17 17 17 17 18 18 18 18 18 17 17 16 16 16 15 15 15 15 15 15 14 14 14 14 14 14 14 13 13 13 13 13 13 13
19 19 19 18 18 18 18 18 18 18 17 17 17 17 17 17 17 17 17 17 17 16 15 15 15 14 14 14 14 14 14 14 14 14 13 13 13 13 13 13 13 13 13
19 19 19 18 18 18 18 18 18 17 17 17 17 17 17 17 17 17 17 17 17 17 16 15 15 15 14 14 14 14 13 13 13 13 13 13 13 13 13 13 13 12 12
19 19 18 18 18 18 18 17 17 17 17 17 17 17 17 17 17 17 17 17 16 16 16 15 15 14 14 14 14 13 13 13 13 13 13 13 13 12 12 12 12 12 12
19 19 18 18 18 18 18 17 17 17 17 17 17 17 17 17 17 17 17 16 16 16 16 15 15 14 14 14 13 13 13 13 13 13 13 13 12 12 12 12 12 12 11
19 18 18 18 18 18 18 17 17 17 17 17 17 17 17 17 17 17 17 16 16 16 16 15 15 14 14 13 13 13 12 12 12 12 12 12 12 12 12 12 11 11 11
19 19 18 18 18 18 18 17 17 17 17 17 17 17 17 17 17 17 16 16 16 16 15 15 15 14 14 13 13 13 12 12 12 12 12 12 12 12 11 11 11 11 11
18 19 18 18 18 18 18 17 17 17 17 17 17 17 17 17 16 16 16 16 16 16 15 15 14 14 13 13 13 13 12 12 12 12 12 12 11 11 11 11 11 11 11
19 18 18 18 18 18 17 17 17 17 17 17 17 17 16 16 16 16 16 16 16 15 15 15 14 14 14 13 13 13 12 12 12 11 11 11 11 11 11 11 11 11 10
18 18 18 18 18 18 18 17 17 17 17 16 16 16 16 16 16 15 15 15 15 15 15 15 14 14 14 13 13 13 12 12 12 12 11 11 11 11 11 11 11 10 10
18 18 18 18 18 17 17 17 17 17 17 16 16 16 16 16 15 15 15 15 15 15 14 14 14 14 13 13 13 13 12 12 12 11 11 11 11 11 10 10 10 10 10
18 18 18 18 18 17 17 17 17 17 16 16 16 16 16 15 15 15 15 15 15 14 14 14 14 14 13 13 13 12 12 11 11 11 11 11 11 10 10 10 10 10 10
18 17 17 17 17 17 17 17 17 16 16 16 16 16 15 15 15 15 15 14 14 14 14 13 13 13 13 13 12 12 12 11 11 11 11 11 11 10 10 10 10 10 10
Wind_Speed
3 3 2 2 3 4 4 3 4 3 3 3 4 6 6 7 8 11 10 12 11 9 7 6 6 6 6 6 7 7 7 7 7 7 7 7 7 7 7 7 6 7 8
4 2 2 2 3 4 4 3 5 4 2 3 5 6 5 6 7 9 10 10 10 9 7 6 6 6 6 7 7 8 8 7 7 7 7 7 6 6 7 7 7 7 7
4 2 2 2 3 4 4 4 4 3 3 3 4 5 4 5 5 6 8 8 8 7 7 6 6 6 6 6 7 7 8 7 7 6 6 7 7 6 7 6 6 6 6
4 2 2 2 3 3 3 3 3 3 3 3 3 3 3 4 4 5 7 8 7 7 7 7 6 6 5 5 6 7 7 7 7 7 6 6 6 6 6 6 6 6 6
4 3 2 3 3 2 2 3 4 3 3 3 3 2 2 3 3 4 4 6 7 8 7 7 6 5 5 5 5 5 6 7 6 6 6 5 5 5 5 5 6 6 6
3 2 3 3 2 2 3 3 3 3 2 2 2 3 2 3 3 2 2 4 5 7 7 7 6 5 4 5 4 4 4 5 5 5 5 4 4 5 5 6 6 6 6
2 2 3 3 2 3 3 3 2 3 3 2 2 2 2 2 3 3 2 2 3 5 6 7 6 5 5 5 4 4 3 4 5 5 5 4 4 4 5 5 5 5 6
2 2 3 2 2 3 2 2 1 1 1 2 2 2 2 1 1 2 2 2 2 4 4 6 6 5 5 5 3 4 4 4 4 4 4 3 4 4 4 5 5 6 6
3 2 3 2 1 2 2 2 1 1 1 1 1 1 1 2 2 2 2 2 2 2 3 4 4 4 4 5 4 4 5 4 4 3 2 2 2 3 4 4 5 6 6
3 3 2 2 1 1 1 2 2 1 2 1 1 1 1 1 1 2 1 2 2 2 2 2 4 5 5 5 6 7 6 4 3 3 3 2 2 1 2 4 4 4 5
2 2 2 2 1 0 1 0 0 0 1 1 1 1 1 1 1 2 2 2 2 1 1 2 3 4 5 5 6 7 7 6 4 3 3 3 2 1 0 1 1 2 2
2 2 2 2 1 1 1 1 0 1 1 1 2 1 1 1 2 2 2 3 2 2 2 2 3 4 5 6 8 10 10 8 7 5 4 4 3 3 2 1 1 1 1
2 1 1 1 1 1 1 1 1 1 1 2 2 2 2 1 1 1 2 2 2 2 2 2 2 4 6 8 8 10 9 8 7 6 6 5 5 4 4 2 2 2 2
2 2 2 1 1 1 1 1 1 2 2 3 3 2 2 2 1 1 2 3 2 1 2 3 3 4 6 8 8 9 8 8 8 8 7 6 6 5 5 5 3 3 3
2 2 2 1 1 1 1 1 2 2 1 2 2 2 2 2 1 2 2 3 3 2 2 2 2 3 6 8 8 8 8 9 8 8 7 7 7 7 6 7 7 6 5
0 2 2 1 1 1 1 1 2 2 2 2 2 1 1 2 1 2 2 2 2 2 2 2 2 4 4 6 8 8 10 10 9 8 7 8 7 7 7 7 7 8 8
2 1 1 1 1 1 2 2 2 2 2 2 2 1 1 1 1 1 1 1 2 3 4 3 3 4 4 4 6 7 8 8 7 8 8 8 8 8 8 8 8 8 8
3 3 3 2 2 2 2 2 2 2 2 2 2 1 1 2 1 1 0 1 2 3 4 5 4 4 3 4 5 4 5 6 7 8 8 8 8 7 7 7 8 8 8
3 3 3 3 3 2 2 2 2 2 2 2 2 2 2 1 1 1 1 1 2 3 4 5 5 3 3 4 4 3 4 4 6 8 8 7 7 7 7 7 7 7 8
4 4 3 4 3 3 3 3 3 2 2 1 1 1 1 1 1 1 1 2 3 3 4 4 5 4 3 4 4 3 3 2 2 5 6 7 7 7 6 6 6 7 7
5 4 4 4 4 4 4 3 3 3 2 2 2 2 2 3 3 1 1 2 3 3 3 4 4 4 3 4 4 3 4 3 2 3 3 4 5 5 5 5 5 6 7
4 4 4 4 4 4 2 2 2 2 2 2 2 2 3 3 4 4 4 4 3 3 3 3 3 4 4 4 3 3 3 3 2 3 3 3 5 4 5 5 7 8 8
4 4 4 4 3 3 3 3 3 2 2 2 3 2 2 2 4 4 4 5 4 3 3 3 3 3 4 5 4 4 3 3 2 3 3 2 3 3 4 6 10 10 9
4 4 4 4 4 5 5 5 4 4 3 3 3 3 3 3 3 3 3 4 4 3 4 4 2 2 2 3 4 4 3 3 2 2 3 2 2 3 4 7 11 12 11
4 4 4 4 4 4 6 6 5 3 3 3 3 3 4 4 5 5 4 4 3 3 4 5 6 5 5 5 5 3 3 3 2 2 3 2 2 2 3 3 10 13 13
4 4 4 4 4 4 6 7 6 4 4 4 4 4 4 5 6 6 4 4 4 3 3 4 4 5 6 6 7 4 3 3 2 2 3 3 2 2 2 2 5 9 11
Wind_Direction
73 78 76 71 97 99 107 109 100 82 77 80 91 92 81 90 103 112 120 128 131 131 133 145 154 160 162 169 173 177 177 175 177 182 187 192 196 200 202 203 205 207 207
89 81 83 86 89 101 104 106 111 104 91 87 84 86 83 87 93 110 124 135 138 138 140 148 159 161 164 166 171 174 178 177 179 182 186 191 194 203 208 208 211 212 212
105 101 81 94 99 102 101 92 96 109 115 98 95 103 100 93 98 110 126 135 143 148 146 146 153 157 160 168 173 175 176 179 180 185 193 198 200 205 208 207 207 210 209
94 105 101 101 114 116 116 116 106 107 98 92 96 102 111 108 111 122 126 131 137 144 151 149 145 152 157 159 170 176 178 181 186 191 198 203 201 201 203 208 211 208 202
93 109 105 105 127 120 114 116 110 115 122 120 128 131 121 126 132 122 120 129 136 137 141 158 155 145 160 161 163 174 188 192 193 196 200 204 204 199 206 216 221 219 210
89 98 106 107 113 101 92 92 114 123 130 146 142 125 126 130 130 126 126 116 126 134 136 141 155 163 157 158 163 172 179 190 187 185 191 199 208 213 213 220 225 220 216
84 75 91 97 91 99 111 122 127 147 157 143 121 120 121 130 132 126 126 116 119 129 130 136 146 152 162 173 173 176 183 180 179 180 183 192 208 214 210 207 211 213 218
82 91 102 118 119 122 121 138 154 161 178 157 170 175 159 138 126 146 142 132 126 109 118 135 136 137 139 150 165 178 185 179 176 176 186 193 193 195 200 208 218 219 219
104 72 80 81 117 136 147 167 168 180 205 211 175 193 170 165 155 125 134 123 121 119 107 102 120 131 134 130 137 146 154 155 157 162 165 166 182 201 209 216 223 225 227
114 113 101 89 43 88 133 184 173 214 205 234 198 198 171 132 152 135 125 126 126 109 103 94 94 102 105 106 107 110 132 145 152 146 136 130 134 169 208 223 230 233 233
123 120 121 123 138 156 145 116 80 237 254 264 262 213 187 180 206 171 166 160 122 110 120 95 88 95 97 102 108 103 108 116 124 119 112 104 92 82 148 196 216 221 214
140 120 131 130 144 159 135 140 255 220 261 296 297 284 240 202 182 182 176 172 158 135 112 95 100 103 103 94 99 100 101 105 104 98 89 79 71 63 62 94 116 138 137
126 103 111 120 153 161 166 180 200 233 234 256 267 281 296 280 197 179 165 171 162 154 131 114 106 110 104 100 106 108 104 106 103 96 88 76 66 59 60 77 100 100 107
112 131 142 149 166 205 202 175 220 225 213 233 250 258 271 276 228 200 179 167 169 170 145 131 101 98 103 105 113 111 106 109 107 100 92 83 76 68 64 70 83 96 104
165 143 146 152 169 192 226 193 231 245 213 232 250 240 240 257 246 224 184 174 180 183 171 145 124 107 108 107 117 118 111 108 108 102 96 89 80 73 72 76 80 81 89
112 149 161 178 189 206 225 230 235 229 214 224 220 246 252 265 250 246 211 191 194 181 153 135 123 122 111 122 123 120 118 114 108 106 100 94 87 82 81 85 87 85 89
181 167 188 196 205 220 224 229 237 232 222 230 232 221 215 261 288 282 223 169 156 140 139 129 118 121 116 115 126 128 132 128 118 117 113 105 100 95 91 88 88 89 94
189 193 194 197 213 218 217 225 246 245 230 231 231 222 237 233 207 267 233 143 130 133 144 142 140 141 145 145 140 146 137 136 129 130 128 120 114 107 102 99 100 100 101
193 200 201 201 214 219 218 217 231 248 240 228 214 211 222 215 210 193 152 135 134 137 137 146 148 143 153 155 146 147 137 128 136 136 133 130 129 124 121 118 116 114 111
202 206 206 211 215 220 220 218 215 220 222 211 202 196 198 184 193 190 176 142 133 129 140 147 146 152 154 159 155 162 147 155 150 147 141 144 144 143 141 138 136 132 126
202 199 208 212 217 221 222 206 215 209 203 197 185 168 157 126 114 110 153 138 144 147 154 156 156 149 155 165 180 187 171 168 163 155 151 160 157 155 160 165 159 150 146
197 197 206 212 223 232 197 179 198 214 197 198 187 168 147 132 125 120 115 110 118 157 166 171 167 169 171 175 186 186 171 174 182 176 167 188 173 171 170 164 162 163 166
198 204 210 209 207 212 194 175 186 214 213 205 201 198 199 158 134 133 133 136 132 144 154 168 175 186 176 178 177 189 184 185 191 178 177 208 175 165 168 163 168 175 179
200 207 214 217 214 209 190 188 190 204 216 208 200 190 174 165 179 149 149 148 157 173 182 183 172 169 166 166 178 189 190 174 175 185 168 200 195 178 173 173 182 184 187
209 212 214 215 212 203 195 191 190 205 209 205 201 202 189 176 166 167 168 167 173 165 148 150 149 152 150 159 170 170 187 188 203 193 173 188 202 176 175 173 189 193 196
218 219 215 216 214 208 205 197 195 211 210 203 196 196 193 178 168 174 180 179 190 186 170 164 167 176 180 181 185 190 200 209 219 203 176 180 202 187 196 183 180 193 206
Height
1530 1531 1531 1532 1533 1534 1535 1536 1537 1538 1539 1541 1542 1543 1544 1545 1546 1546 1547 1547 1548 1548 1549 1549 1550 1550 1551 1552 1552 1553 1554 1555 1556 1557 1558 1560 1561 1562 1563 1564 1565 1566 1567
1531 1532 1533 1533 1534 1535 1537 1538 1539 1540 1541 1542 1543 1544 1545 1546 1546 1547 1547 1548 1548 1549 1549 1549 1549 1550 1550 1551 1552 1552 1553 1554 1555 1556 1557 1558 1559 1560 1561 1562 1563 1564 1565
1533 1533 1534 1535 1536 1537 1538 1539 1540 1541 1543 1544 1545 1545 1546 1546 1547 1548 1548 1548 1548 1549 1549 1549 1549 1549 1550 1550 1551 1551 1552 1553 1554 1555 1556 1557 1557 1558 1559 1560 1561 1562 1563
1534 1535 1536 1536 1537 1538 1539 1540 1541 1542 1543 1544 1545 1546 1547 1547 1547 1548 1549 1549 1549 1549 1549 1549 1549 1549 1550 1550 1550 1551 1551 1552 1552 1553 1554 1555 1555 1556 1557 1558 1558 1559 1560
1536 1536 1537 1537 1539 1540 1541 1541 1542 1543 1544 1545 1545 1547 1547 1548 1549 1549 1549 1549 1549 1549 1549 1549 1550 1549 1549 1549 1550 1550 1550 1551 1551 1551 1552 1552 1553 1553 1554 1555 1556 1557 1558
1537 1537 1538 1538 1539 1540 1541 1542 1543 1543 1544 1545 1546 1547 1548 1549 1549 1549 1550 1550 1550 1550 1550 1550 1549 1549 1549 1549 1549 1549 1549 1549 1550 1550 1550 1550 1550 1550 1551 1552 1553 1554 1555
1537 1538 1539 1539 1540 1540 1541 1542 1543 1544 1545 1545 1546 1547 1548 1549 1549 1549 1550 1550 1550 1550 1550 1549 1549 1549 1549 1549 1549 1548 1548 1548 1548 1548 1548 1548 1548 1548 1549 1549 1550 1551 1552
1538 1538 1539 1539 1540 1540 1541 1542 1543 1543 1545 1546 1546 1547 1548 1549 1549 1549 1549 1549 1550 1550 1550 1549 1549 1549 1548 1548 1547 1547 1547 1547 1547 1547 1546 1546 1546 1546 1546 1547 1548 1548 1549
1538 1538 1539 1539 1540 1540 1541 1542 1542 1543 1544 1545 1546 1546 1547 1547 1548 1549 1549 1549 1549 1549 1549 1549 1549 1548 1548 1547 1546 1546 1546 1546 1546 1546 1546 1545 1545 1545 1545 1545 1545 1546 1546
1538 1538 1538 1539 1539 1540 1541 1541 1541 1542 1543 1544 1544 1545 1546 1546 1547 1548 1549 1549 1548 1548 1548 1548 1548 1547 1547 1547 1546 1546 1546 1546 1545 1545 1545 1544 1544 1544 1543 1544 1544 1544 1544
1538 1538 1538 1538 1539 1539 1540 1540 1540 1541 1542 1543 1543 1544 1545 1545 1546 1546 1547 1548 1548 1548 1547 1547 1547 1547 1546 1546 1546 1545 1545 1545 1545 1544 1544 1543 1543 1542 1542 1542 1542 1542 1542
1537 1537 1537 1538 1538 1538 1538 1539 1539 1540 1541 1541 1542 1543 1543 1544 1544 1545 1545 1545 1546 1546 1546 1546 1546 1546 1546 1545 1545 1545 1544 1544 1543 1543 1542 1542 1541 1541 1541 1541 1540 1540 1540
1536 1537 1537 1537 1536 1537 1537 1538 1538 1539 1539 1540 1540 1541 1542 1542 1543 1543 1543 1543 1544 1545 1545 1545 1545 1545 1545 1544 1544 1544 1543 1543 1543 1542 1541 1541 1540 1540 1539 1539 1538 1538 1538
1535 1535 1536 1535 1535 1536 1536 1536 1537 1537 1538 1538 1539 1539 1540 1540 1541 1541 1542 1542 1542 1543 1544 1544 1544 1543 1543 1543 1543 1542 1542 1542 1542 1541 1541 1540 1539 1539 1538 1537 1537 1536 1536
1534 1534 1534 1534 1534 1535 1535 1535 1536 1536 1536 1537 1537 1537 1538 1538 1539 1539 1540 1540 1541 1541 1542 1542 1542 1542 1542 1542 1542 1541 1541 1541 1541 1541 1540 1540 1539 1538 1537 1536 1536 1535 1535
1533 1533 1533 1533 1533 1534 1534 1534 1534 1535 1535 1535 1535 1536 1536 1536 1537 1537 1538 1538 1539 1539 1539 1540 1540 1540 1541 1541 1541 1540 1540 1540 1540 1540 1540 1539 1539 1538 1537 1536 1535 1535 1534
1532 1532 1532 1531 1532 1532 1532 1533 1533 1533 1533 1534 1534 1534 1534 1535 1535 1535 1536 1536 1537 1537 1537 1538 1539 1540 1540 1540 1540 1540 1540 1540 1540 1540 1539 1539 1538 1537 1537 1536 1535 1535 1534
1530 1530 1530 1530 1530 1531 1531 1531 1531 1532 1532 1532 1532 1532 1533 1533 1533 1534 1534 1534 1535 1536 1536 1536 1537 1538 1539 1539 1539 1540 1540 1540 1539 1539 1539 1538 1538 1537 1536 1536 1535 1534 1534
1528 1529 1529 1529 1529 1529 1529 1529 1530 1530 1530 1530 1531 1531 1531 1531 1532 1532 1533 1533 1533 1534 1534 1535 1535 1536 1537 1538 1538 1539 1539 1539 1539 1539 1538 1538 1537 1537 1536 1536 1535 1534 1534
1526 1527 1527 1527 1527 1527 1527 1528 1528 1528 1528 1529 1529 1529 1530 1530 1530 1531 1531 1531 1532 1532 1533 1534 1534 1535 1535 1536 1537 1537 1538 1538 1538 1538 1537 1537 1536 1536 1536 1535 1535 1534 1533
1524 1524 1525 1524 1525 1525 1526 1526 1526 1526 1527 1527 1527 1528 1528 1528 1528 1529 1530 1530 1530 1531 1532 1532 1533 1533 1533 1534 1534 1535 1536 1536 1537 1537 1536 1536 1535 1535 1535 1534 1534 1533 1532
1522 1522 1522 1522 1523 1523 1524 1524 1524 1524 1525 1525 1525 1526 1526 1526 1526 1527 1527 1528 1529 1529 1530 1530 1531 1531 1531 1532 1533 1533 1534 1534 1535 1535 1535 1534 1534 1534 1534 1533 1533 1532 1532
1519 1519 1520 1520 1520 1520 1521 1521 1522 1522 1522 1523 1523 1523 1524 1524 1525 1525 1525 1525 1526 1527 1528 1528 1528 1529 1529 1530 1530 1531 1532 1532 1532 1533 1533 1533 1533 1532 1532 1532 1532 1532 1531
1516 1516 1516 1517 1516 1516 1518 1518 1519 1519 1520 1520 1520 1520 1521 1521 1522 1522 1523 1523 1523 1524 1525 1526 1526 1526 1527 1527 1528 1529 1530 1530 1531 1531 1531 1531 1531 1531 1531 1531 1531 1531 1530
1513 1513 1513 1513 1513 1513 1514 1515 1516 1516 1516 1517 1517 1518 1518 1518 1519 1520 1520 1520 1520 1521 1522 1523 1523 1524 1525 1525 1526 1527 1527 1528 1529 1529 1529 1529 1530 1530 1529 1529 1529 1529 1529
1510 1510 1510 1510 1510 1510 1511 1511 1511 1513 1513 1513 1514 1515 1515 1516 1516 1517 1518 1518 1518 1518 1519 1520 1521 1521 1522 1522 1523 1524 1525 1526 1526 1527 1526 1527 1527 1528 1528 1527 1527 1527 1527